Simultaneous Nadir Overpasses (SNOs) Predictions

Prediction of SNOs between AQUA and NOAA-19 Satellite Orbit:

Table of predicted SNOs for the next 14.0 days since TLE Epoch: 12/12/2014
Index Date (AQUA) Time (AQUA) Lat,Lon (AQUA) SZA (AQUA ) Date (NOAA-19) Time (NOAA-19) Lat,Lon (NOAA-19) SZA (NOAA-19 ) Distance(km) Time Diff (sec)
1 12/13/2014 03:48:24 78.92, 99.66 102.73 12/13/2014 03:48:32 78.91, 99.71 102.72 1.12 8
2 12/15/2014 08:32:46 79.07, 27.68 103.08 12/15/2014 08:32:13 79.06, 27.75 103.08 1.62 33
3 12/15/2014 09:22:05 -78.78,-163.01 77.30 12/15/2014 09:23:11 -78.78,-163.01 77.32 0.11 66
4 12/17/2014 13:17:08 79.24, -44.45 103.43 12/17/2014 13:15:55 79.24, -44.52 103.46 1.47 73
5 12/17/2014 14:06:26 -78.91, 125.17 77.02 12/17/2014 14:06:51 -78.91, 125.23 77.03 1.43 25
6 12/19/2014 18:50:47 -79.07, 53.20 76.74 12/19/2014 18:50:32 -79.07, 53.16 76.73 1.02 15
7 12/19/2014 19:39:45 77.84,-132.82 101.70 12/19/2014 19:40:59 77.95,-132.42 101.77 15.52 74
8 12/21/2014 23:35:07 -79.20, -18.68 76.52 12/21/2014 23:34:12 -79.20, -18.72 76.50 0.91 55
9 12/22/2014 00:24:28 78.97, 150.37 103.17 12/22/2014 00:25:03 78.97, 150.33 103.16 0.94 35
10 12/24/2014 05:08:47 79.08, 78.60 103.33 12/24/2014 05:08:43 79.09, 78.53 103.34 1.66 4
11 12/26/2014 09:53:05 79.18, 6.93 103.42 12/26/2014 09:52:22 79.18, 6.96 103.44 0.46 43




NCC Satellite Simultaneous Nadir Overpasses (SNOs) Prediction Service
